SCOUT B DEB, 28793

Orbit data source: Space-Track

SCOUT B DEB, 28793 is space debris in LEO originally from a launch on Tue, 10 Aug 1965 UTC launched from the Wallops Island (WLPIS). Debris objects in space refer to the collection of defunct objects orbiting the Earth. Examples of debris include non-operational satellites, rocket bodies, and fragments generated from explosions, collisions, or faulty payload assembly.

Loading next visibility...
Identifier
28793, 1965-063C
Orbit
LEO
Country
Flag of USUS
Related business
Manufacturer
Unknown
Mission
Spacecraft
Bus & Motor
Unknown
Mass
Unknown
Launch date (UTC)
1965-08-10 (60 years ago)
Launch vehicle
Unknown
Launch site
Wallops Island (WLPIS)
Object type
Payload
Rocket body
Debris
Shape & HBR
Unknown
Radar Cross Section
Small (<0.1 m²)

Expand to show TLE details & history
Last TLE update: 1 week ago

TLE from 1 week ago
0 SCOUT B DEB
1 28793U 65063C   25252.06170909  .00001733  00000-0  74690-2 0  9999
2 28793  69.2017  27.8956 0772494 202.4043 154.1451 12.12598284442464
Epoch: 2025-09-09T01:28Z
TLE epoch observation values (Epoch: 2025-09-09T01:28:51.665Z)
Latitude
-0.00004°
Longitude
17.32243°
Altitude
2,191.616 km
Speed
6.576 km/s
True Right ascension
01h 51m 34s
True Declination
0° 00' 00"
Sunlit
Object was in full shadow at epoch
Visualization orbit readout
Latitude
Unknown
Longitude
Unknown
Altitude
Unknown
Speed
Unknown
Apparent Right ascension
Unknown
Apparent Declination
Unknown
Sunlit
N/A
Visualization observer readout
Local Sidereal Time
15:04:34
Azimuth
Unknown
Elevation
Unknown
Doppler factor
Unknown
Orbital elements
Apogee altitude
2,241.323 km
Perigee altitude
1,005.123 km
Semi-major axis
8,001.36 km
Eccentricity
0.07725
Inclination
69.2017°
RAAN
27.8956°
Arg. of periapsis
202.4043°
True anomaly
157.69372°
Mean anomaly
154.1451°
Eccentric anomaly
155.94894°
Mean motion
3.03248 °/min
Orbital period
118.71 mins
BSTAR
0.007469
Loading maneuver chart data...
Computing Atmospheric mass density...
Loading historical data...
Loading historical data...
Loading historical data...
Loading historical data...
Loading historical data...
Loading historical data...
Loading historical data...

Documentation

Showing up to 5 results
|